Terug naar catalogus

FENGYUN 1C DEB

LostSSO
NORAD 38165·DEBRIS·🇨🇳 China

Gelanceerd May 10, 1999 vanaf Taiyuan Satellite Launch Center

Loading…

Volgende Passages (komende 24 uur)

TLE

VerouderdSource: Space-Track

Epoch: Sep 4, 2022, 11:22 UTC

1 38165U 99025ERN 22247.47373441  .00002173  00000-0  86152-3 0  9996
2 38165  99.0681 120.6069 0032350 147.5691 212.7486 14.29658632710833

Volg FENGYUN 1C DEB in realtime met AllMySat

Download on the App Store